FW4822 Weather Reports


time (UTC)temp
C
wind
direction
speed
KPH
gust
KPH
rain 1hr
cm
rain 24hr
cm
rain mn
cm
humidity
%
barometer
mb
20260510000007 11 222 6.4 14.5 0.00 1.73 1.09 91 1007.8
20260509234509 11 217 3.2 14.5 0.00 1.73 1.09 91 1007.8
20260509231512 12 225 3.2 19.3 0.00 1.73 1.09 91 1007.6
20260509230006 12 242 1.6 9.7 0.00 1.73 1.09 90 1007.3
20260509224504 12 230 0.0 9.7 0.00 1.73 1.09 92 1007.5
20260509221556 12 191 0.0 8.0 0.00 1.73 1.09 94 1007.5
20260509220106 12 273 1.6 14.5 0.00 1.73 1.09 96 1007.6
20260509214558 11 280 0.0 8.0 0.00 1.73 1.09 97 1007.6
20260509213153 11 229 3.2 9.7 0.00 1.73 1.09 97 1007.9
20260509211506 11 269 1.6 6.4 0.00 1.73 1.09 97 1007.8
20260509210107 11 229 4.8 11.3 0.00 1.73 1.09 97 1007.9
20260509204559 10 273 0.0 8.0 0.00 1.73 1.09 97 1007.8
20260509203157 10 288 0.0 6.4 0.00 1.73 1.09 97 1008.3
20260509201543 10 209 0.0 8.0 0.00 1.73 1.09 97 1008.3
20260509200043 10 241 0.0 6.4 0.03 1.73 1.09 97 1008.4
20260509194539 10 166 3.2 11.3 0.03 1.73 1.09 97 1008.6
20260509193139 10 268 1.6 12.9 0.05 1.75 1.09 97 1008.6
20260509191545 10 238 4.8 11.3 0.10 1.75 1.09 97 1008.6
20260509190044 9 256 3.2 11.3 0.18 1.73 1.07 96 1008.6
20260509184551 9 242 0.0 9.7 0.28 1.73 1.07 97 1008.7
20260509183141 9 230 6.4 14.5 0.28 1.70 1.04 97 1008.6
20260509181552 9 243 4.8 12.9 0.33 1.68 1.02 96 1008.7
20260509180046 9 234 1.6 11.3 0.25 1.57 0.91 96 1008.9
20260509174541 8 230 4.8 9.7 0.18 1.42 0.79 97 1008.7
20260509173138 8 221 4.8 16.1 0.18 1.42 0.76 96 1008.7
20260509171533 8 188 4.8 11.3 0.15 1.37 0.71 96 1008.7
20260509170039 8 213 0.0 6.4 0.13 1.32 0.66 97 1008.7
20260509164536 8 206 1.6 11.3 0.08 1.27 0.61 96 1008.7
20260509163128 8 281 1.6 9.7 0.08 1.24 0.58 96 1008.6
20260509161532 8 223 3.2 11.3 0.05 1.22 0.56 96 1008.7
20260509160031 8 221 1.6 11.3 0.03 1.19 0.53 96 1008.8
20260509154523 8 206 0.0 12.9 0.03 1.19 0.53 96 1009.0
20260509153123 8 241 1.6 11.3 0.00 1.17 0.51 96 1009.2
20260509151522 8 175 1.6 16.1 0.00 1.17 0.51 96 1009.2
20260509150021 7 167 3.2 16.1 0.00 1.17 0.51 96 1009.3
20260509144518 7 143 6.4 19.3 0.03 1.17 0.51 96 1009.3
20260509143119 7 206 0.0 17.7 0.05 1.17 0.51 96 1009.2
20260509141520 7 254 3.2 11.3 0.08 1.17 0.51 96 1009.3
20260509140018 7 221 1.6 14.5 0.08 1.17 0.51 96 1009.3
20260509134517 7 192 1.6 11.3 0.10 1.14 0.48 96 1009.6
20260509133116 7 206 3.2 12.9 0.10 1.12 0.46 96 1009.7
20260509131518 7 218 3.2 12.9 0.08 1.09 0.43 96 1009.8
20260509130017 7 192 1.6 14.5 0.10 1.09 0.43 96 1009.8
20260509124516 7 219 3.2 11.3 0.08 1.07 0.41 96 1010.0
20260509123115 7 190 0.0 9.7 0.05 1.04 0.36 96 1010.1
20260509121512 7 200 1.6 11.3 0.05 1.04 0.36 96 1010.0
20260509120007 7 212 0.0 11.3 0.05 1.02 0.33 96 1010.2
20260509114506 7 211 4.8 11.3 0.10 1.02 0.33 96 1010.2
20260509113106 7 203 0.0 6.4 0.15 1.02 0.33 96 1010.3
20260509111507 7 215 0.0 8.0 0.15 0.99 0.30 96 1010.5
20260509110006 7 202 3.2 9.7 0.18 0.97 0.28 96 1010.4
20260509104508 7 211 1.6 12.9 0.13 0.91 0.23 96 1010.4
20260509103105 7 218 3.2 12.9 0.08 0.86 0.18 96 1010.5
20260509101503 7 216 1.6 9.7 0.08 0.84 0.15 96 1010.3
20260509100100 7 195 1.6 12.9 0.03 0.79 0.10 96 1010.2
20260509094600 7 190 0.0 3.2 0.03 0.79 0.10 96 1010.2
20260509093059 7 178 0.0 4.8 0.03 0.79 0.10 96 1010.3
20260509091627 7 177 0.0 4.8 0.00 0.76 0.08 96 1010.4
20260509090055 7 177 1.6 6.4 0.00 0.76 0.08 96 1010.6
20260509084553 7 165 0.0 4.8 0.03 0.76 0.08 96 1010.6
20260509083054 7 164 0.0 6.4 0.05 0.76 0.08 96 1010.6
20260509081550 7 154 0.0 4.8 0.05 0.76 0.08 96 1010.8
20260509080059 7 198 0.0 9.7 0.05 0.76 0.08 96 1010.8
20260509074553 7 222 0.0 3.2 0.05 0.71 0.05 96 1010.8
20260509073115 7 225 0.0 0.0 0.05 0.71 0.03 96 1010.9
20260509071553 7 225 0.0 9.7 0.08 0.71 0.03 96 1011.1
20260509070058 7 213 1.6 6.4 0.08 0.71 0.03 95 1011.1
20260509064549 7 234 1.6 8.0 0.08 0.69 0.00 96 1011.3
20260509063046 7 296 0.0 0.0 0.08 0.66 0.66 95 1011.8
20260509061539 7 296 0.0 0.0 0.10 0.66 0.66 95 1012.0
20260509060047 7 296 0.0 0.0 0.10 0.64 0.64 95 1012.1
20260509054538 7 296 0.0 0.0 0.08 0.61 0.61 95 1012.3
20260509053038 7 296 0.0 0.0 0.10 0.58 0.58 95 1012.4
20260509051541 7 296 0.0 0.0 0.10 0.56 0.56 95 1012.5
20260509050041 7 296 0.0 0.0 0.13 0.53 0.53 95 1012.5
20260509044541 7 297 0.0 8.0 0.18 0.53 0.53 95 1012.5
20260509043046 7 281 3.2 11.3 0.13 0.48 0.48 95 1012.8
20260509041537 7 262 3.2 9.7 0.10 0.46 0.46 95 1012.7
20260509040050 7 234 1.6 6.4 0.10 0.41 0.41 95 1012.6
20260509034546 7 223 1.6 4.8 0.13 0.38 0.38 94 1012.6
20260509033037 7 221 1.6 8.0 0.15 0.41 0.36 94 1012.4
20260509031541 7 269 0.0 8.0 0.18 0.41 0.36 94 1012.6
20260509030038 7 261 1.6 11.3 0.13 0.36 0.30 94 1013.0
20260509024537 7 270 0.0 4.8 0.08 0.30 0.25 93 1013.0
20260509023037 7 274 0.0 9.7 0.03 0.46 0.20 92 1012.9
20260509021640 8 282 1.6 8.0 0.03 0.43 0.18 92 1013.0
20260509020040 8 306 3.2 14.5 0.03 0.43 0.18 91 1012.8
20260509014536 8 253 1.6 14.5 0.13 0.43 0.18 91 1012.5
20260509013038 8 267 1.6 9.7 0.13 0.48 0.18 90 1012.2
20260509011553 8 285 3.2 11.3 0.10 0.46 0.15 90 1012.4
20260509010046 8 244 1.6 19.3 0.10 0.46 0.15 88 1012.3
20260509004551 8 287 1.6 11.3 0.00 0.36 0.05 84 1011.9
20260509003041 9 254 1.6 9.7 0.00 0.36 0.05 83 1011.7
20260509001533 9 269 0.0 8.0 0.00 0.36 0.05 82 1011.4